Project,Study,Ord_Occ,Event_Num,Cast_ID,Date_Time_UTC,Date_Time_PST,Lat_Dec,Lon_Dec,Sta_ID,Line,Sta,Depth,Pressure,PrQ,Temp1,Temp1Q,Temp2,Temp2Q,TempAve,Salt1,Salt1Q,Salt1_Corr,Salt2,Salt2Q,Salt2_Corr,SaltAve_Corr,Ox1,Ox1Q,Ox1_CruiseCorr,Ox1_StaCorr,Ox2,Ox2Q,Ox2_CruiseCorr,Ox2_StaCorr,OxAve_StaCorr,Ox1uM,Ox1uM_CruiseCorr,Ox1uM_StaCorr,Ox2uM,Ox2uM_CruiseCorr,Ox2uM_StaCorr,OxAveuM_StaCorr,FluorV,FluorQ,EstChl_CruiseCorr,EstChl_StaCorr,ISUSV,ISUSQ,EstNO3_CruiseCorr,EstNO3_StaCorr,SigThetaTS1,SigThetaTS1Q,SigThetaTS2,SigThetaTS2Q,BAT,XMiss,TransQ,pH,pHQ,SPAR,SPARQ,PAR,PARQ,PoT1,PoT2,DynHt,SVA,OxSat1,OxSat2,BTL_Depth,BTL_Temp,SaltB,OxB,OxBuM,Chl-a,Phaeo,NO3,NO2,NH4,PO4,SIL
CalCOFI,2105SH,004,,2105_004u,05-May-2021 03:09:03,04-May-2021 19:09:03,32.68144,-117.87176,093.3 035.0,093.3,035.0,517.000,521.313,,6.2333,,6.2331,,6.2332,34.3404,,34.3416,34.3415,,34.3434,34.3425,0.2342,,0.3110,0.2526,0.2390,,0.3070,0.2646,0.2586,10.186,13.1472,26.2177,10.394,16.1294,26.4481,26.3329,0.0418,,,,0.5765,,0.0000,,27.0076,,27.0085,,,,,,,,,,,6.1869,6.1867,0.8430,111.684,3.394,3.463,,,,,,,,,,,,
CalCOFI,2105SH,004,,2105_004u,05-May-2021 03:09:05,04-May-2021 19:09:05,32.68144,-117.87176,093.3 035.0,093.3,035.0,516.000,520.303,,6.2339,,6.2338,,6.2339,34.3403,,34.3415,34.3412,,34.3431,34.3423,0.2342,,0.3110,0.2526,0.2390,,0.3070,0.2646,0.2586,10.184,13.1452,26.2162,10.393,16.1273,26.4473,26.3318,0.0419,,,,0.5765,,0.0000,,27.0074,,27.0081,,,,,,,,,,,6.1876,6.1875,0.8430,111.689,3.393,3.463,516,,,0.302,13.18,,,40.36,0.00,0.00,3.23,73.47
CalCOFI,2105SH,004,,2105_004u,05-May-2021 03:09:11,04-May-2021 19:09:11,32.68145,-117.87173,093.3 035.0,093.3,035.0,515.000,519.294,,6.2340,,6.2338,,6.2339,34.3402,,34.3414,34.3413,,34.3432,34.3423,0.2342,,0.3110,0.2526,0.2390,,0.3070,0.2646,0.2586,10.183,13.1441,26.2154,10.391,16.1262,26.4458,26.3306,0.0420,,,,0.5764,,0.0000,,27.0073,,27.0082,,,,,,,,,,,6.1877,6.1876,0.8440,111.683,3.393,3.463,,,,,,,,,,,,
CalCOFI,2105SH,004,,2105_004u,05-May-2021 03:09:14,04-May-2021 19:09:14,32.68146,-117.87172,093.3 035.0,093.3,035.0,514.000,518.284,,6.2343,,6.2340,,6.2342,34.3401,,34.3413,34.3412,,34.3431,34.3422,0.2341,,0.3109,0.2525,0.2389,,0.3069,0.2645,0.2585,10.182,13.1431,26.2146,10.390,16.1251,26.4451,26.3299,0.0418,,,,0.5764,,0.0000,,27.0072,,27.0081,,,,,,,,,,,6.1881,6.1879,0.8447,111.681,3.393,3.462,,,,,,,,,,,,
CalCOFI,2105SH,004,,2105_004u,05-May-2021 03:09:15,04-May-2021 19:09:15,32.68146,-117.87172,093.3 035.0,093.3,035.0,513.000,517.275,,6.2339,,6.2339,,6.2339,34.3402,,34.3414,34.3412,,34.3431,34.3423,0.2341,,0.3109,0.2525,0.2389,,0.3069,0.2645,0.2585,10.180,13.1410,26.2131,10.389,16.1229,26.4443,26.3287,0.0426,,,,0.5765,,0.0000,,27.0073,,27.0081,,,,,,,,,,,6.1879,6.1879,0.8447,111.654,3.392,3.462,,,,,,,,,,,,
CalCOFI,2105SH,004,,2105_004u,05-May-2021 03:09:16,04-May-2021 19:09:16,32.68146,-117.87172,093.3 035.0,093.3,035.0,512.000,516.265,,6.2335,,6.2337,,6.2336,34.3401,,34.3413,34.3413,,34.3432,34.3423,0.2341,,0.3109,0.2525,0.2400,,0.3080,0.2657,0.2591,10.179,13.1399,26.2124,10.437,16.1219,26.4805,26.3465,0.0419,,,,0.5765,,0.0000,,27.0073,,27.0082,,,,,,,,,,,6.1876,6.1878,0.8447,111.640,3.392,3.477,,,,,,,,,,,,
CalCOFI,2105SH,004,,2105_004u,05-May-2021 03:09:17,04-May-2021 19:09:17,32.68146,-117.87172,093.3 035.0,093.3,035.0,511.000,515.255,,6.2313,,6.2329,,6.2321,34.3395,,34.3407,34.3409,,34.3428,34.3418,0.2341,,0.3109,0.2525,0.2474,,0.3157,0.2733,0.2629,10.178,13.1389,26.2116,10.760,16.1208,26.7236,26.4676,0.0418,,,,0.5766,,0.0000,,27.0070,,27.0080,,,,,,,,,,,6.1855,6.1870,0.8447,111.647,3.391,3.585,,,,,,,,,,,,
CalCOFI,2105SH,004,,2105_004u,05-May-2021 03:09:17,04-May-2021 19:09:17,32.68146,-117.87172,093.3 035.0,093.3,035.0,510.000,514.246,,6.2277,,6.2298,,6.2288,34.3370,,34.3382,34.3384,,34.3403,34.3393,0.2379,,0.3149,0.2565,0.2494,,0.3177,0.2754,0.2660,10.346,13.3145,26.3396,10.846,16.3022,26.7884,26.5640,0.0422,,,,0.5767,,0.0000,,27.0055,,27.0064,,,,,,,,,,,6.1820,6.1841,0.8447,111.771,3.447,3.614,,,,,,,,,,,,
CalCOFI,2105SH,004,,2105_004u,05-May-2021 03:09:18,04-May-2021 19:09:18,32.68146,-117.87172,093.3 035.0,093.3,035.0,509.000,513.236,,6.2269,,6.2282,,6.2276,34.3352,,34.3364,34.3369,,34.3388,34.3376,0.2443,,0.3216,0.2632,0.2431,,0.3112,0.2689,0.2661,10.624,13.6051,26.5515,10.570,16.6025,26.5806,26.5661,0.0414,,,,0.5768,,0.0000,,27.0042,,27.0054,,,,,,,,,,,6.1813,6.1826,0.8447,111.875,3.539,3.522,,,,,,,,,,,,
CalCOFI,2105SH,004,,2105_004u,05-May-2021 03:09:19,04-May-2021 19:09:19,32.68146,-117.87172,093.3 035.0,093.3,035.0,508.000,512.227,,6.2264,,6.2275,,6.2270,34.3328,,34.3340,34.3339,,34.3358,34.3349,0.2393,,0.3164,0.2580,0.2475,,0.3158,0.2734,0.2657,10.406,13.3772,26.3853,10.765,16.3670,26.7274,26.5564,0.0425,,,,0.5770,,0.0000,,27.0023,,27.0031,,,,,,,,,,,6.1809,6.1820,0.8447,112.037,3.467,3.586,,,,,,,,,,,,
CalCOFI,2105SH,004,,2105_004u,05-May-2021 03:09:20,04-May-2021 19:09:20,32.68146,-117.87172,093.3 035.0,093.3,035.0,507.000,511.217,,6.2359,,6.2294,,6.2327,34.3310,,34.3322,34.3323,,34.3342,34.3332,0.2384,,0.3154,0.2570,0.2533,,0.3218,0.2794,0.2682,10.367,13.3365,26.3556,11.014,16.3249,26.9148,26.6352,0.0422,,,,0.5771,,0.0000,,26.9997,,27.0016,,,,,,,,,,,6.1904,6.1840,0.8447,112.282,3.454,3.669,,,,,,,,,,,,
CalCOFI,2105SH,004,,2105_004u,05-May-2021 03:09:21,04-May-2021 19:09:21,32.68146,-117.87172,093.3 035.0,093.3,035.0,506.000,510.208,,6.2363,,6.2348,,6.2356,34.3315,,34.3327,34.3320,,34.3339,34.3333,0.2398,,0.3169,0.2585,0.2490,,0.3173,0.2750,0.2668,10.426,13.3981,26.4006,10.830,16.3886,26.7763,26.5885,0.0415,,,,0.5773,,0.0000,,27.0000,,27.0006,,,,,,,,,,,6.1909,6.1894,0.8447,112.237,3.474,3.609,,,,,,,,,,,,
CalCOFI,2105SH,004,,2105_004u,05-May-2021 03:09:22,04-May-2021 19:09:22,32.68146,-117.87172,093.3 035.0,093.3,035.0,505.000,509.198,,6.2336,,6.2332,,6.2334,34.3323,,34.3335,34.3329,,34.3348,34.3342,0.2470,,0.3244,0.2661,0.2474,,0.3157,0.2733,0.2697,10.741,13.7274,26.6406,10.760,16.7288,26.7236,26.6821,0.0422,,,,0.5775,,0.0000,,27.0010,,27.0015,,,,,,,,,,,6.1883,6.1879,0.8447,112.126,3.579,3.585,,,,,,,,,,,,
CalCOFI,2105SH,004,,2105_004u,05-May-2021 03:09:23,04-May-2021 19:09:23,32.68146,-117.87172,093.3 035.0,093.3,035.0,504.000,508.189,,6.2419,,6.2434,,6.2427,34.3303,,34.3315,34.3316,,34.3335,34.3325,0.2470,,0.3244,0.2661,0.2474,,0.3157,0.2733,0.2697,10.742,13.7285,26.6414,10.757,16.7299,26.7214,26.6814,0.0425,,,,0.5777,,0.0000,,26.9983,,26.9992,,,,,,,,,,,6.1967,6.1982,0.8447,112.376,3.580,3.585,,,,,,,,,,,,
CalCOFI,2105SH,004,,2105_004u,05-May-2021 03:09:24,04-May-2021 19:09:24,32.68146,-117.87172,093.3 035.0,093.3,035.0,503.000,507.179,,6.2435,,6.2467,,6.2451,34.3309,,34.3321,34.3310,,34.3329,34.3325,0.2427,,0.3199,0.2615,0.2473,,0.3156,0.2732,0.2674,10.557,13.5351,26.5004,10.754,16.5301,26.7191,26.6098,0.0413,,,,0.5778,,0.0000,,26.9986,,26.9983,,,,,,,,,,,6.1984,6.2015,0.8447,112.338,3.518,3.584,,,,,,,,,,,,
CalCOFI,2105SH,004,,2105_004u,05-May-2021 03:09:25,04-May-2021 19:09:25,32.68146,-117.87172,093.3 035.0,093.3,035.0,502.000,506.169,,6.2559,,6.2457,,6.2508,34.3295,,34.3307,34.3319,,34.3338,34.3323,0.2426,,0.3198,0.2614,0.2473,,0.3156,0.2732,0.2673,10.550,13.5278,26.4951,10.753,16.5225,26.7183,26.6067,0.0423,,,,0.5780,,0.0000,,26.9959,,26.9991,,,,,,,,,,,6.2108,6.2006,0.8447,112.590,3.517,3.584,,,,,,,,,,,,
CalCOFI,2105SH,004,,2105_004u,05-May-2021 03:09:25,04-May-2021 19:09:25,32.68146,-117.87172,093.3 035.0,093.3,035.0,501.000,505.160,,6.2554,,6.2468,,6.2511,34.3305,,34.3317,34.3322,,34.3341,34.3329,0.2426,,0.3198,0.2614,0.2472,,0.3154,0.2731,0.2673,10.549,13.5267,26.4943,10.752,16.5215,26.7176,26.6060,0.0419,,,,0.5782,,0.0000,,26.9967,,26.9992,,,,,,,,,,,6.2104,6.2018,0.8447,112.497,3.517,3.583,,,,,,,,,,,,
CalCOFI,2105SH,004,,2105_004u,05-May-2021 03:09:26,04-May-2021 19:09:26,32.68146,-117.87172,093.3 035.0,093.3,035.0,500.000,504.150,,6.2662,,6.2570,,6.2616,34.3301,,34.3313,34.3331,,34.3350,34.3332,0.2425,,0.3197,0.2613,0.2510,,0.3194,0.2771,0.2692,10.545,13.5225,26.4913,10.917,16.5171,26.8418,26.6666,0.0423,,,,0.5784,,0.0000,,26.9950,,26.9985,,,,,,,,,,,6.2213,6.2121,0.8447,112.660,3.516,3.639,,,,,,,,,,,,
CalCOFI,2105SH,004,,2105_004u,05-May-2021 03:09:27,04-May-2021 19:09:27,32.68146,-117.87172,093.3 035.0,093.3,035.0,499.000,503.141,,6.2728,,6.2687,,6.2708,34.3306,,34.3318,34.3324,,34.3343,34.3331,0.2435,,0.3208,0.2624,0.2569,,0.3255,0.2832,0.2728,10.589,13.5685,26.5248,11.171,16.5647,27.0330,26.7789,0.0425,,,,0.5787,,0.0000,,26.9946,,26.9964,,,,,,,,,,,6.2279,6.2238,0.8447,112.691,3.531,3.725,,,,,,,,,,,,
CalCOFI,2105SH,004,,2105_004u,05-May-2021 03:09:29,04-May-2021 19:09:29,32.68146,-117.87172,093.3 035.0,093.3,035.0,498.000,502.131,,6.2668,,6.2695,,6.2682,34.3313,,34.3325,34.3323,,34.3342,34.3334,0.2482,,0.3257,0.2673,0.2527,,0.3211,0.2788,0.2731,10.795,13.7839,26.6818,10.989,16.7871,26.8960,26.7889,0.0412,,,,0.5790,,0.0000,,26.9958,,26.9963,,,,,,,,,,,6.2221,6.2247,0.8447,112.550,3.599,3.665,,,,,,,,,,,,
CalCOFI,2105SH,004,,2105_004u,05-May-2021 03:09:29,04-May-2021 19:09:29,32.68146,-117.87172,093.3 035.0,093.3,035.0,497.000,501.122,,6.2719,,6.2758,,6.2739,34.3292,,34.3304,34.3306,,34.3325,34.3315,0.2528,,0.3305,0.2722,0.2511,,0.3195,0.2772,0.2747,10.993,13.9909,26.8327,10.920,17.0010,26.8441,26.8384,0.0425,,,,0.5792,,0.0000,,26.9935,,26.9941,,,,,,,,,,,6.2272,6.2311,0.8447,112.762,3.666,3.642,,,,,,,,,,,,
CalCOFI,2105SH,004,,2105_004u,05-May-2021 03:09:30,04-May-2021 19:09:30,32.68146,-117.87170,093.3 035.0,093.3,035.0,496.000,500.112,,6.2775,,6.2781,,6.2778,34.3282,,34.3294,34.3299,,34.3318,34.3306,0.2484,,0.3259,0.2675,0.2515,,0.3199,0.2776,0.2726,10.802,13.7912,26.6871,10.939,16.7947,26.8584,26.7728,0.0407,,,,0.5794,,0.0000,,26.9920,,26.9933,,,,,,,,,,,6.2329,6.2334,0.8447,112.894,3.602,3.648,,,,,,,,,,,,
CalCOFI,2105SH,004,,2105_004u,05-May-2021 03:09:31,04-May-2021 19:09:31,32.68146,-117.87170,093.3 035.0,093.3,035.0,495.000,499.103,,6.2821,,6.2810,,6.2816,34.3267,,34.3279,34.3286,,34.3305,34.3292,0.2516,,0.3292,0.2709,0.2564,,0.3250,0.2827,0.2768,10.943,13.9386,26.7946,11.148,16.9470,27.0157,26.9052,0.0415,,,,0.5796,,0.0000,,26.9902,,26.9919,,,,,,,,,,,6.2375,6.2364,0.8447,113.053,3.650,3.718,,,,,,,,,,,,
CalCOFI,2105SH,004,,2105_004u,05-May-2021 03:09:31,04-May-2021 19:09:31,32.68146,-117.87170,093.3 035.0,093.3,035.0,494.000,498.093,,6.2833,,6.2770,,6.2802,34.3264,,34.3276,34.3302,,34.3321,34.3299,0.2570,,0.3349,0.2766,0.2617,,0.3305,0.2882,0.2824,11.175,14.1811,26.9714,11.378,17.1975,27.1889,27.0802,0.0415,,,,0.5798,,0.0000,,26.9898,,26.9937,,,,,,,,,,,6.2389,6.2326,0.8447,113.075,3.728,3.795,,,,,,,,,,,,
CalCOFI,2105SH,004,,2105_004u,05-May-2021 03:09:32,04-May-2021 19:09:32,32.68146,-117.87170,093.3 035.0,093.3,035.0,493.000,497.084,,6.2903,,6.2793,,6.2848,34.3243,,34.3255,34.3308,,34.3327,34.3291,0.2554,,0.3332,0.2749,0.2633,,0.3321,0.2898,0.2824,11.108,14.1111,26.9203,11.452,17.1252,27.2446,27.0825,0.0419,,,,0.5800,,0.0000,,26.9872,,26.9938,,,,,,,,,,,6.2459,6.2350,0.8447,113.311,3.706,3.820,,,,,,,,,,,,
CalCOFI,2105SH,004,,2105_004u,05-May-2021 03:09:33,04-May-2021 19:09:33,32.68146,-117.87170,093.3 035.0,093.3,035.0,492.000,496.074,,6.3080,,6.2915,,6.2998,34.3215,,34.3227,34.3266,,34.3285,34.3256,0.2575,,0.3354,0.2771,0.2666,,0.3355,0.2932,0.2852,11.198,14.2052,26.9889,11.595,17.2224,27.3522,27.1706,0.0415,,,,0.5802,,0.0000,,26.9828,,26.9889,,,,,,,,,,,6.2636,6.2472,0.8447,113.740,3.737,3.868,,,,,,,,,,,,
CalCOFI,2105SH,004,,2105_004u,05-May-2021 03:09:34,04-May-2021 19:09:34,32.68147,-117.87170,093.3 035.0,093.3,035.0,491.000,495.065,,6.3122,,6.3049,,6.3086,34.3211,,34.3223,34.3246,,34.3265,34.3244,0.2606,,0.3386,0.2804,0.2625,,0.3313,0.2890,0.2847,11.332,14.3453,27.0910,11.416,17.3671,27.2175,27.1543,0.0417,,,,0.5805,,0.0000,,26.9818,,26.9856,,,,,,,,,,,6.2679,6.2607,0.8447,113.816,3.782,3.810,,,,,,,,,,,,
CalCOFI,2105SH,004,,2105_004u,05-May-2021 03:09:35,04-May-2021 19:09:35,32.68148,-117.87170,093.3 035.0,093.3,035.0,490.000,494.055,,6.3129,,6.3136,,6.3133,34.3220,,34.3232,34.3228,,34.3247,34.3240,0.2557,,0.3335,0.2752,0.2618,,0.3306,0.2883,0.2818,11.120,14.1236,26.9295,11.383,17.1381,27.1926,27.0611,0.0416,,,,0.5809,,0.0000,,26.9825,,26.9830,,,,,,,,,,,6.2687,6.2694,0.8447,113.744,3.712,3.800,,,,,,,,,,,,
CalCOFI,2105SH,004,,2105_004u,05-May-2021 03:09:36,04-May-2021 19:09:36,32.68148,-117.87170,093.3 035.0,093.3,035.0,489.000,493.046,,6.3057,,6.3126,,6.3092,34.3227,,34.3239,34.3231,,34.3250,34.3245,0.2557,,0.3335,0.2752,0.2696,,0.3387,0.2963,0.2858,11.118,14.1216,26.9279,11.725,17.1360,27.4501,27.1890,0.0417,,,,0.5813,,0.0000,,26.9839,,26.9833,,,,,,,,,,,6.2616,6.2685,0.8447,113.583,3.710,3.914,,,,,,,,,,,,
CalCOFI,2105SH,004,,2105_004u,05-May-2021 03:09:37,04-May-2021 19:09:37,32.68148,-117.87170,093.3 035.0,093.3,035.0,488.000,492.036,,6.3084,,6.3118,,6.3101,34.3218,,34.3230,34.3231,,34.3250,34.3240,0.2578,,0.3357,0.2774,0.2660,,0.3349,0.2926,0.2850,11.210,14.2177,26.9980,11.566,17.2353,27.3304,27.1642,0.0417,,,,0.5817,,0.0000,,26.9829,,26.9834,,,,,,,,,,,6.2645,6.2678,0.8447,113.669,3.741,3.860,,,,,,,,,,,,
CalCOFI,2105SH,004,,2105_004u,05-May-2021 03:09:38,04-May-2021 19:09:38,32.68148,-117.87170,093.3 035.0,093.3,035.0,487.000,491.027,,6.3130,,6.3151,,6.3141,34.3213,,34.3225,34.3226,,34.3245,34.3235,0.2649,,0.3431,0.2849,0.2635,,0.3323,0.2900,0.2875,11.519,14.5408,27.2335,11.460,17.5691,27.2506,27.2421,0.0415,,,,0.5820,,0.0000,,26.9819,,26.9826,,,,,,,,,,,6.2691,6.2712,0.8447,113.757,3.845,3.825,,,,,,,,,,,,
CalCOFI,2105SH,004,,2105_004u,05-May-2021 03:09:38,04-May-2021 19:09:38,32.68148,-117.87170,093.3 035.0,093.3,035.0,486.000,490.017,,6.3147,,6.3149,,6.3148,34.3216,,34.3228,34.3237,,34.3256,34.3242,0.2657,,0.3440,0.2857,0.2648,,0.3337,0.2914,0.2886,11.552,14.5753,27.2587,11.517,17.6047,27.2935,27.2761,0.0420,,,,0.5823,,0.0000,,26.9818,,26.9835,,,,,,,,,,,6.2709,6.2711,0.8447,113.748,3.856,3.844,,,,,,,,,,,,
CalCOFI,2105SH,004,,2105_004u,05-May-2021 03:09:39,04-May-2021 19:09:39,32.68148,-117.87170,093.3 035.0,093.3,035.0,485.000,489.008,,6.3248,,6.3249,,6.3249,34.3195,,34.3207,34.3228,,34.3247,34.3227,0.2624,,0.3405,0.2823,0.2727,,0.3419,0.2995,0.2909,11.411,14.4279,27.1512,11.861,17.4524,27.5525,27.3519,0.0412,,,,0.5826,,0.0000,,26.9789,,26.9815,,,,,,,,,,,6.2810,6.2812,0.8447,114.017,3.810,3.960,,,,,,,,,,,,
CalCOFI,2105SH,004,,2105_004u,05-May-2021 03:09:40,04-May-2021 19:09:40,32.68148,-117.87170,093.3 035.0,093.3,035.0,484.000,487.999,,6.3430,,6.3387,,6.3409,34.3182,,34.3194,34.3209,,34.3228,34.3211,0.2687,,0.3471,0.2889,0.2717,,0.3408,0.2985,0.2937,11.685,14.7143,27.3600,11.815,17.7483,27.5178,27.4389,0.0415,,,,0.5831,,0.0000,,26.9755,,26.9782,,,,,,,,,,,6.2993,6.2950,0.8447,114.345,3.903,3.946,,,,,,,,,,,,
CalCOFI,2105SH,004,,2105_004u,05-May-2021 03:09:42,04-May-2021 19:09:42,32.68148,-117.87170,093.3 035.0,093.3,035.0,483.000,486.989,,6.3543,,6.3504,,6.3524,34.3182,,34.3194,34.3203,,34.3222,34.3208,0.2646,,0.3428,0.2846,0.2739,,0.3431,0.3008,0.2927,11.505,14.5261,27.2228,11.913,17.5539,27.5916,27.4072,0.0418,,,,0.5836,,0.0000,,26.9740,,26.9762,,,,,,,,,,,6.3106,6.3067,0.8447,114.485,3.844,3.980,,,,,,,,,,,,
CalCOFI,2105SH,004,,2105_004u,05-May-2021 03:09:43,04-May-2021 19:09:43,32.68148,-117.87170,093.3 035.0,093.3,035.0,482.000,485.980,,6.3485,,6.3476,,6.3481,34.3189,,34.3201,34.3203,,34.3222,34.3212,0.2645,,0.3427,0.2845,0.2758,,0.3451,0.3028,0.2937,11.500,14.5209,27.2190,11.995,17.5485,27.6534,27.4362,0.0415,,,,0.5840,,0.0000,,26.9753,,26.9765,,,,,,,,,,,6.3050,6.3040,0.8447,114.339,3.842,4.007,,,,,,,,,,,,
CalCOFI,2105SH,004,,2105_004u,05-May-2021 03:09:44,04-May-2021 19:09:44,32.68148,-117.87170,093.3 035.0,093.3,035.0,481.000,484.970,,6.3514,,6.3494,,6.3504,34.3186,,34.3198,34.3200,,34.3219,34.3209,0.2644,,0.3426,0.2844,0.2722,,0.3413,0.2990,0.2917,11.498,14.5188,27.2175,11.839,17.5464,27.5359,27.3767,0.0409,,,,0.5843,,0.0000,,26.9747,,26.9761,,,,,,,,,,,6.3079,6.3059,0.8447,114.389,3.841,3.955,,,,,,,,,,,,
CalCOFI,2105SH,004,,2105_004u,05-May-2021 03:09:44,04-May-2021 19:09:44,32.68148,-117.87170,093.3 035.0,093.3,035.0,480.000,483.961,,6.3580,,6.3524,,6.3552,34.3175,,34.3187,34.3201,,34.3220,34.3204,0.2671,,0.3454,0.2872,0.2714,,0.3405,0.2982,0.2927,11.613,14.6390,27.3051,11.803,17.6706,27.5088,27.4070,0.0411,,,,0.5845,,0.0000,,26.9729,,26.9757,,,,,,,,,,,6.3146,6.3090,0.8447,114.546,3.880,3.943,,,,,,,,,,,,
CalCOFI,2105SH,004,,2105_004u,05-May-2021 03:09:45,04-May-2021 19:09:45,32.68148,-117.87170,093.3 035.0,093.3,035.0,479.000,482.951,,6.3519,,6.3530,,6.3525,34.3191,,34.3203,34.3205,,34.3224,34.3214,0.2724,,0.3510,0.2928,0.2719,,0.3410,0.2987,0.2958,11.848,14.8847,27.4842,11.824,17.9244,27.5246,27.5044,0.0415,,,,0.5848,,0.0000,,26.9750,,26.9759,,,,,,,,,,,6.3086,6.3097,0.8447,114.331,3.958,3.950,,,,,,,,,,,,
CalCOFI,2105SH,004,,2105_004u,05-May-2021 03:09:46,04-May-2021 19:09:46,32.68148,-117.87170,093.3 035.0,093.3,035.0,478.000,481.942,,6.3621,,6.3745,,6.3683,34.3172,,34.3184,34.3197,,34.3216,34.3200,0.2740,,0.3526,0.2945,0.2788,,0.3482,0.3059,0.3002,11.915,14.9547,27.5353,12.123,17.9967,27.7497,27.6425,0.0415,,,,0.5851,,0.0000,,26.9721,,26.9725,,,,,,,,,,,6.3188,6.3312,0.8447,114.594,3.981,4.052,,,,,,,,,,,,
CalCOFI,2105SH,004,,2105_004u,05-May-2021 03:09:46,04-May-2021 19:09:46,32.68148,-117.87170,093.3 035.0,093.3,035.0,477.000,480.932,,6.3941,,6.3944,,6.3943,34.3147,,34.3159,34.3176,,34.3195,34.3177,0.2697,,0.3482,0.2899,0.2829,,0.3524,0.3101,0.3000,11.728,14.7593,27.3928,12.304,17.7948,27.8860,27.6394,0.0415,,,,0.5854,,0.0000,,26.9660,,26.9683,,,,,,,,,,,6.3508,6.3512,0.8447,115.193,3.921,4.114,,,,,,,,,,,,
CalCOFI,2105SH,004,,2105_004u,05-May-2021 03:09:47,04-May-2021 19:09:47,32.68148,-117.87170,093.3 035.0,093.3,035.0,476.000,479.923,,6.4019,,6.3991,,6.4005,34.3154,,34.3166,34.3181,,34.3200,34.3183,0.2771,,0.3559,0.2977,0.2756,,0.3449,0.3026,0.3002,12.052,15.0980,27.6397,11.984,18.1447,27.6451,27.6424,0.0412,,,,0.5858,,0.0000,,26.9655,,26.9681,,,,,,,,,,,6.3587,6.3559,0.8447,115.232,4.031,4.008,,,,,,,,,,,,
CalCOFI,2105SH,004,,2105_004u,05-May-2021 03:09:48,04-May-2021 19:09:48,32.68148,-117.87170,093.3 035.0,093.3,035.0,475.000,478.914,,6.4021,,6.4027,,6.4024,34.3160,,34.3172,34.3176,,34.3195,34.3184,0.2751,,0.3538,0.2956,0.2761,,0.3454,0.3031,0.2994,11.964,15.0060,27.5726,12.006,18.0497,27.6616,27.6171,0.0415,,,,0.5861,,0.0000,,26.9660,,26.9671,,,,,,,,,,,6.3590,6.3596,0.8447,115.173,4.001,4.016,,,,,,,,,,,,
CalCOFI,2105SH,004,,2105_004u,05-May-2021 03:09:49,04-May-2021 19:09:49,32.68148,-117.87170,093.3 035.0,093.3,035.0,474.000,477.904,,6.3981,,6.3979,,6.3980,34.3161,,34.3173,34.3174,,34.3193,34.3183,0.2727,,0.3513,0.2931,0.2840,,0.3536,0.3113,0.3022,11.861,14.8983,27.4941,12.350,17.9384,27.9206,27.7074,0.0422,,,,0.5865,,0.0000,,26.9666,,26.9676,,,,,,,,,,,6.3551,6.3549,0.8447,115.099,3.966,4.130,,,,,,,,,,,,
CalCOFI,2105SH,004,,2105_004u,05-May-2021 03:09:50,04-May-2021 19:09:50,32.68148,-117.87170,093.3 035.0,093.3,035.0,473.000,476.895,,6.3997,,6.3987,,6.3992,34.3157,,34.3169,34.3172,,34.3191,34.3180,0.2727,,0.3513,0.2931,0.2849,,0.3545,0.3122,0.3027,11.859,14.8962,27.4926,12.390,17.9363,27.9507,27.7217,0.0416,,,,0.5868,,0.0000,,26.9660,,26.9674,,,,,,,,,,,6.3568,6.3558,0.8447,115.139,3.966,4.144,,,,,,,,,,,,
CalCOFI,2105SH,004,,2105_004u,05-May-2021 03:09:51,04-May-2021 19:09:51,32.68148,-117.87170,093.3 035.0,093.3,035.0,472.000,475.886,,6.4036,,6.4127,,6.4082,34.3142,,34.3154,34.3173,,34.3192,34.3173,0.2731,,0.3517,0.2935,0.2846,,0.3542,0.3119,0.3027,11.875,14.9129,27.5048,12.378,17.9535,27.9417,27.7233,0.0415,,,,0.5872,,0.0000,,26.9644,,26.9656,,,,,,,,,,,6.3608,6.3698,0.8447,115.284,3.972,4.141,,,,,,,,,,,,
CalCOFI,2105SH,004,,2105_004u,05-May-2021 03:09:52,04-May-2021 19:09:52,32.68148,-117.87170,093.3 035.0,093.3,035.0,471.000,474.876,,6.4134,,6.4414,,6.4274,34.3156,,34.3168,34.3158,,34.3177,34.3173,0.2786,,0.3575,0.2993,0.2893,,0.3591,0.3167,0.3080,12.114,15.1628,27.6869,12.580,18.2117,28.0938,27.8904,0.0412,,,,0.5876,,0.0000,,26.9642,,26.9606,,,,,,,,,,,6.3706,6.3985,0.8447,115.300,4.053,4.211,,,,,,,,,,,,
CalCOFI,2105SH,004,,2105_004u,05-May-2021 03:09:53,04-May-2021 19:09:53,32.68148,-117.87170,093.3 035.0,093.3,035.0,470.000,473.867,,6.4247,,6.4496,,6.4372,34.3123,,34.3135,34.3144,,34.3163,34.3149,0.2828,,0.3619,0.3037,0.2846,,0.3542,0.3119,0.3078,12.300,15.3572,27.8287,12.378,18.4125,27.9417,27.8852,0.0410,,,,0.5879,,0.0000,,26.9600,,26.9585,,,,,,,,,,,6.3820,6.4068,0.8447,115.686,4.116,4.144,,,,,,,,,,,,
CalCOFI,2105SH,004,,2105_004u,05-May-2021 03:09:54,04-May-2021 19:09:54,32.68149,-117.87170,093.3 035.0,093.3,035.0,469.000,472.857,,6.4400,,6.4480,,6.4440,34.3130,,34.3142,34.3144,,34.3163,34.3153,0.2787,,0.3576,0.2994,0.2886,,0.3583,0.3160,0.3077,12.120,15.1690,27.6915,12.551,18.2181,28.0719,27.8817,0.0419,,,,0.5883,,0.0000,,26.9586,,26.9587,,,,,,,,,,,6.3974,6.4053,0.8447,115.824,4.057,4.202,,,,,,,,,,,,
CalCOFI,2105SH,004,,2105_004u,05-May-2021 03:09:55,04-May-2021 19:09:55,32.68150,-117.87169,093.3 035.0,093.3,035.0,468.000,471.848,,6.4392,,6.4526,,6.4459,34.3134,,34.3146,34.3144,,34.3163,34.3155,0.2857,,0.3649,0.3068,0.2944,,0.3643,0.3220,0.3144,12.424,15.4868,27.9232,12.804,18.5465,28.2624,28.0928,0.0409,,,,0.5887,,0.0000,,26.9590,,26.9580,,,,,,,,,,,6.3966,6.4100,0.8447,115.767,4.159,4.287,,,,,,,,,,,,
CalCOFI,2105SH,004,,2105_004u,05-May-2021 03:09:56,04-May-2021 19:09:56,32.68150,-117.87168,093.3 035.0,093.3,035.0,467.000,470.839,,6.4654,,6.4726,,6.4690,34.3115,,34.3127,34.3142,,34.3161,34.3144,0.2825,,0.3615,0.3034,0.2878,,0.3575,0.3152,0.3093,12.283,15.3394,27.8157,12.513,18.3942,28.0433,27.9295,0.0409,,,,0.5892,,0.0000,,26.9541,,26.9553,,,,,,,,,,,6.4228,6.4300,0.8447,116.247,4.114,4.192,,,,,,,,,,,,
CalCOFI,2105SH,004,,2105_004u,05-May-2021 03:09:58,04-May-2021 19:09:58,32.68150,-117.87168,093.3 035.0,093.3,035.0,466.000,469.829,,6.4732,,6.4839,,6.4786,34.3120,,34.3132,34.3135,,34.3154,34.3143,0.2875,,0.3668,0.3087,0.2913,,0.3611,0.3188,0.3138,12.504,15.5705,27.9841,12.666,18.6329,28.1585,28.0713,0.0410,,,,0.5897,,0.0000,,26.9534,,26.9532,,,,,,,,,,,6.4307,6.4413,0.8447,116.304,4.188,4.244,,,,,,,,,,,,
CalCOFI,2105SH,004,,2105_004u,05-May-2021 03:09:58,04-May-2021 19:09:58,32.68150,-117.87168,093.3 035.0,093.3,035.0,465.000,468.820,,6.4792,,6.4809,,6.4801,34.3121,,34.3133,34.3135,,34.3154,34.3144,0.2905,,0.3699,0.3118,0.2991,,0.3692,0.3269,0.3194,12.635,15.7074,28.0840,13.005,18.7743,28.4137,28.2489,0.0418,,,,0.5901,,0.0000,,26.9527,,26.9536,,,,,,,,,,,6.4368,6.4385,0.8447,116.363,4.233,4.357,,,,,,,,,,,,
CalCOFI,2105SH,004,,2105_004u,05-May-2021 03:09:59,04-May-2021 19:09:59,32.68150,-117.87168,093.3 035.0,093.3,035.0,464.000,467.811,,6.4800,,6.4794,,6.4797,34.3118,,34.3130,34.3134,,34.3153,34.3142,0.2854,,0.3646,0.3064,0.2936,,0.3635,0.3212,0.3138,12.412,15.4743,27.9140,12.766,18.5335,28.2338,28.0739,0.0414,,,,0.5903,,0.0000,,26.9524,,26.9537,,,,,,,,,,,6.4376,6.4371,0.8447,116.379,4.158,4.277,,,,,,,,,,,,
CalCOFI,2105SH,004,,2105_004u,05-May-2021 03:10:00,04-May-2021 19:10:00,32.68150,-117.87168,093.3 035.0,093.3,035.0,463.000,466.801,,6.4820,,6.4869,,6.4845,34.3122,,34.3134,34.3134,,34.3153,34.3144,0.2854,,0.3646,0.3064,0.2914,,0.3612,0.3189,0.3127,12.413,15.4754,27.9148,12.672,18.5346,28.1630,28.0389,0.0411,,,,0.5905,,0.0000,,26.9524,,26.9527,,,,,,,,,,,6.4397,6.4447,0.8447,116.364,4.159,4.246,,,,,,,,,,,,
CalCOFI,2105SH,004,,2105_004u,05-May-2021 03:10:00,04-May-2021 19:10:00,32.68150,-117.87168,093.3 035.0,093.3,035.0,462.000,465.792,,6.4906,,6.4920,,6.4913,34.3110,,34.3122,34.3136,,34.3155,34.3139,0.2853,,0.3645,0.3063,0.2913,,0.3611,0.3188,0.3126,12.409,15.4712,27.9117,12.670,18.5303,28.1615,28.0366,0.0415,,,,0.5907,,0.0000,,26.9503,,26.9522,,,,,,,,,,,6.4484,6.4498,0.8447,116.552,4.158,4.246,,,,,,,,,,,,